Regional Weather Roundup
Issued by NWS

Home | Current Version | Previous Version | Graphics & Text | Print | Product List | Glossary On
Versions: 1 2 3 4 5 6 7 8 9 10 11 12 13 14 15 16 17 18 19 20 21 22 23 24 25 26 27 28 29 30 31 32 33 34 35 36 37 38 39 40 41 42 43 44 45 46 47 48 49 50
292
ASUS45 KSLC 242310
RWRUT

UTAH REGIONAL WEATHER ROUNDUP
NATIONAL WEATHER SERVICE SALT LAKE CITY UT
400 PM MST SAT FEB 24 2018

UTZ001>011-023>025-250000-

NORTHERN UTAH

CITY           SKY/WX    TMP DP  RH WIND       PRES   REMARKS
BRIGHAM CITY   CLOUDY    29  12  49 SW14      29.99F WCI  18
HILL AFB       PTSUNNY   25  11  56 S6        29.96S WCI  18
LOGAN          PTSUNNY   29  11  47 S15       29.95F WCI  18
OGDEN          CLOUDY    27  13  55 S13       29.97F WCI  16
SALT LAKE CITY CLOUDY    31  14  49 S18       29.97F WCI  19
WENDOVER       CLOUDY    36  13  38 SW7       29.92F WCI  30
HEBER CITY       N/A     25   9  50 SW12      29.92S WCI  14
WEST JORDAN    CLOUDY    26  16  67 SE20G25   29.98S WCI  12

$$

UTZ011>015-024>027-250000-

CENTRAL/NORTHEAST UTAH

CITY           SKY/WX    TMP DP  RH WIND       PRES   REMARKS
PROVO AIRPORT  CLOUDY    29  12  49 SE8       30.02F WCI  21
MOAB/CANYONLAN PTSUNNY   36  -2  20 VRB3      29.94F
DELTA          CLOUDY    27  14  59 E3        29.99F
PRICE          CLOUDY    26   7  44 SE8       29.91F WCI  18
RICHFIELD      PTSUNNY   34   3  27 SW3       29.95F
VERNAL         CLOUDY    24  10  55 CALM      29.93F

$$

UTZ013>016-019>022-027-250000-

SOUTHERN UTAH

CITY           SKY/WX    TMP DP  RH WIND       PRES   REMARKS
BRYCE CANYON   CLOUDY    24  13  62 SE10      29.91F WCI  14
CEDAR CITY     CLOUDY    28  16  60 SW18G25   29.97S WCI  15
MILFORD        CLOUDY    29  13  51 S12       29.97F WCI  19
ST GEORGE      CLOUDY    43  12  28 CALM      30.09F
HANKSVILLE     PTSUNNY   37   7  28 SE12      29.96F WCI  30
KANAB          SUNNY     37  12  35 SW12G20   30.06F WCI  30
BLANDING         N/A     32   7  34 S13G18    30.04F WCI  23

$$

REGIONAL REPORTS     COLORADO/ARIZONA

CITY           SKY/WX    TMP DP  RH WIND       PRES   REMARKS
CRAIG, CO      PTSUNNY   22   4  46 W7        29.90F WCI  13
GRAND JUNCTION SUNNY     34   5  29 W12       29.94F WCI  25
RIFLE, CO      MOSUNNY   27   5  39 CALM      29.94F
MONTROSE, CO   SUNNY     31   2  29 W10       29.95F WCI  22
CORTEZ, CO     SUNNY     33   6  32 NW7G18    29.98F WCI  27
COLORADO CITY    N/A     39  14  35 W7        30.06F WCI  34
PAGE, AZ       SUNNY     41   7  24 VRB5      30.00F
GRAND CANYON   SUNNY     29  10  45 SW8       30.05F WCI  21
KINGMAN, AZ    MOSUNNY   49  -7   9 W16       30.10F
FLAGSTAFF, AZ  SUNNY     31   8  38 SW15      30.05R WCI  20

$$

REGIONAL REPORTS    NEVADA/IDAHO/WYOMING

CITY           SKY/WX    TMP DP  RH WIND       PRES   REMARKS
LAS VEGAS, NV  PTSUNNY   54   0  11 S13G21    30.05F
ELY, NY        LGT SNOW  24  15  68 VRB7      29.96S WCI  16
ELKO, NV       SNOW      27  24  89 SW13      29.95S VSB 1/2 WCI  16
POCATELLO, ID  CLOUDY    29  15  56 S22       29.87F WCI  15
BURLEY, ID     SNOW      25  22  88 S18       29.88S VSB 1/2 WCI  11
FORT BRIDGER,  CLOUDY    19   9  65 W18G26    29.86S WCI   4
EVANSTON, WY   CLOUDY    17  12  80 SW22      29.82F WCI   0
ROCK SPRINGS,  CLOUDY    17   7  64 W25       29.82F WCI  -1

$$




USA.gov is the U.S. government's official web portal to all federal, state and local government web resources and services.